Onweer radar Meer informatie blitzortung!


Regen radar Meer informatie rain snow radar


Bezoek ook deze websites:

Template documentation
and downloads

And another site


Wind van: 29-02-2020 15:00 tot: 18:00 waarschuwing voor: Wind niveau: Geel info button

Select another period ( hide this area )

Eenheden Periode Custom range Directly to
Metrisch Engels Beide
Dagelijkse Wekelijkse Maandelijkse Jaarlijkse
use both date-selectors for a custom range
previous Dag
With this date

WeatherUnderground graphs for this period ( click here )



Warning: Division by zero in /var/www/vhosts/meteotuikwerd.nl/httpdocs/weather28/wu/WU-History4.php on line 835
Dagelijkse Samenvatting Zaterdag Feb 29 2020
Tijd Temp. ( °C ) Dew pt. ( °C ) Wind ( km/h ) van Windvlaag ( km/h ) Luchtdruk ( hPa ) Humid.( % ) Rainrate ( cm ) Zonneschijn ( W/m2 )
Hoog8,8 7,9 38,5 Zuiden ( 582/1547 ) 45,1 996,5 95 0,80 0
Gemiddeld6,4 5,5 19,3 ZZO #28/80 29,6 993,1 94 0,90 NAN #0/80
Laag2,2 1,2 6,4   19,3 990,4 93 -  
Dagelijkse Tabular details for Zaterdag Feb 29 2020
Tijd Temp. ( °C ) Dew pt. ( °C ) Wind ( km/h ) van Windvlaag ( km/h ) Luchtdruk ( hPa ) Humid.( % ) Rainrate ( cm ) Zonneschijn ( W/m2 )
00:00 2,2 1,2 13,0 ZZO 25,7 996,5 93 0,80 -
00:05 2,3 1,3 16,3 ZO 27,4 996,5 93 0,50 -
00:10 2,6 1,6 17,7 ZZO 24,1 996,2 93 0,50 -
00:15 2,7 1,7 13,0 ZZO 20,9 996,2 93 0,50 -
00:20 2,9 1,9 9,7 ZZO 19,3 995,8 93 0,50 -
00:25 3,1 2,1 16,3 ZZO 32,2 995,8 93 0,50 -
00:30 3,3 2,4 16,3 ZO 20,9 995,8 94 0,50 -
00:35 3,6 2,7 9,7 ZO 25,7 995,8 94 0,50 -
00:40 3,8 2,9 9,7 Oosten 24,1 995,5 94 0,50 -
00:45 3,9 3,0 20,9 ZZO 24,1 995,5 94 0,50 -
00:50 4,1 3,2 24,1 Zuiden 29,0 995,1 94 0,50 -
00:55 4,3 3,4 16,3 ZZO 24,1 995,1 94 0,50 -
01:00 4,4 3,5 17,7 ZZO 24,1 995,1 94 0,30 -
01:05 4,6 3,7 14,3 ZO 27,4 995,1 94 0,30 -
01:10 4,7 3,8 22,7 ZZW 30,6 995,1 94 0,30 -
01:15 4,8 3,9 22,7 Zuiden 29,0 995,1 94 0,30 -
01:20 5,0 4,1 25,9 ZZO 35,4 995,1 94 - -
01:25 5,1 4,2 19,5 ZO 25,7 994,8 94 0,30 -
01:30 5,1 4,2 6,4 Oosten 32,2 994,8 94 0,30 -
01:35 5,2 4,3 17,7 Zuiden 25,7 994,5 94 0,30 -
01:40 5,3 4,4 14,3 ZZO 32,2 994,5 94 0,30 -
01:45 5,4 4,5 17,7 ZO 35,4 994,5 94 0,30 -
01:50 5,4 4,5 28,8 ZZO 30,6 994,5 94 0,30 -
01:55 5,5 4,6 19,5 ZZO 27,4 994,5 94 0,30 -
02:00 5,5 4,6 17,7 ZZO 30,6 994,1 94 0,50 -
02:05 5,6 4,7 17,7 ZZW 32,2 994,1 94 0,50 -
02:10 5,7 4,8 17,7 Zuiden 32,2 994,1 94 0,50 -
02:15 5,8 4,9 14,3 Zuiden 29,0 994,1 94 0,50 -
02:20 5,8 4,9 20,9 ZO 33,8 994,1 94 0,50 -
02:25 5,9 5,0 27,4 OZO 32,2 994,1 94 0,50 -
02:30 6,0 5,1 22,7 ZZO 32,2 993,8 94 0,50 -
02:35 6,1 5,2 19,5 ZZO 32,2 993,8 94 0,50 -
02:40 6,1 5,2 24,1 ZO 37,0 993,8 94 0,50 -
02:45 6,1 5,2 11,1 ZO 24,1 993,8 94 0,50 -
02:50 6,2 5,3 22,7 ZZO 27,4 993,5 94 0,50 -
02:55 6,2 5,3 14,3 ZO 32,2 993,5 94 0,50 -
03:00 6,2 5,3 14,3 Zuiden 27,4 993,5 94 0,30 -
03:05 6,3 5,4 16,3 ZZO 30,6 993,1 94 0,50 -
03:10 6,3 5,4 14,3 Zuiden 30,6 993,1 94 0,50 -
03:15 6,4 5,5 17,7 ZZO 24,1 993,1 94 0,30 -
03:20 6,4 5,5 22,7 ZZO 27,4 993,1 94 0,30 -
03:25 6,6 5,7 17,7 ZO 27,4 992,8 94 0,30 -
03:30 6,7 5,8 20,9 Zuiden 30,6 992,8 94 0,30 -
03:35 6,7 5,8 14,3 ZO 25,7 992,8 94 0,30 -
03:40 6,8 5,9 17,7 ZZO 27,4 992,8 94 0,50 -
03:45 6,8 5,9 19,5 OZO 22,5 992,4 94 0,50 -
03:50 6,9 6,0 22,7 Zuiden 22,5 992,4 94 0,50 -
03:55 7,0 6,1 9,7 ZZO 29,0 992,4 94 0,50 -
04:00 7,1 6,2 19,5 Zuiden 25,7 992,4 94 0,50 -
04:05 7,2 6,5 16,3 ZO 20,9 992,4 95 0,50 -
04:10 7,3 6,6 9,7 Zuiden 27,4 992,1 95 0,50 -
04:15 7,3 6,4 13,0 ZO 20,9 992,1 94 0,50 -
04:20 7,4 6,5 14,3 Zuiden 22,5 992,1 94 0,50 -
04:25 7,4 6,5 11,1 Zuiden 30,6 992,1 94 0,50 -
04:30 7,6 6,9 14,3 ZZW 24,1 991,8 95 0,50 -
04:35 7,7 6,9 16,3 ZO 27,4 991,8 95 0,50 -
04:40 7,7 6,9 20,9 Zuiden 24,1 991,8 95 0,50 -
04:45 7,8 6,9 20,9 Zuiden 24,1 991,8 94 0,50 -
04:50 7,9 7,1 17,7 ZZO 24,1 991,4 95 0,50 -
04:55 8,1 7,3 19,5 Zuiden 32,2 991,4 95 0,50 -
05:00 8,2 7,4 24,1 Zuiden 33,8 991,4 95 0,80 -
05:05 8,2 7,4 24,1 ZZO 29,0 991,4 95 0,50 -
05:10 8,2 7,4 19,5 ZZO 30,6 991,4 95 0,50 -
05:15 8,2 7,4 17,7 Zuiden 33,8 991,4 95 0,50 -
05:20 8,3 7,5 17,7 ZZO 38,6 991,1 95 0,50 -
05:25 8,3 7,5 17,7 ZZO 24,1 991,1 95 0,50 -
05:30 8,3 7,5 24,1 Zuiden 25,7 991,1 95 0,50 -
05:35 8,3 7,5 22,7 Zuiden 32,2 991,1 95 0,50 -
05:40 8,4 7,6 22,7 ZZO 37,0 991,1 95 0,50 -
05:45 8,4 7,5 32,0 Zuiden 33,8 991,1 94 0,30 -
05:50 8,4 7,5 20,9 ZZW 41,8 990,7 94 0,50 -
05:55 8,5 7,6 25,9 OZO 30,6 990,7 94 0,50 -
06:00 8,6 7,7 28,8 Zuiden 41,8 990,7 94 0,30 -
06:05 8,6 7,8 28,8 ZZO 32,2 990,7 95 0,30 -
06:10 8,7 7,9 25,9 Zuiden 43,4 990,4 95 0,30 -
06:15 8,7 7,8 30,6 ZZW 40,2 990,4 94 0,30 -
06:20 8,7 7,8 28,8 Zuiden 45,1 990,4 94 0,30 -
06:25 8,7 7,8 38,5 Zuiden 41,8 990,4 94 0,30 -
06:30 8,8 7,9 24,1 Zuiden 37,0 990,4 94 0,30 -
06:35 8,8 7,9 30,6 Zuiden 38,6 990,4 94 0,30 -
Dagelijkse Samenvatting Zaterdag Feb 29 2020
Tijd Temp. ( °C ) Dew pt. ( °C ) Wind ( km/h ) van Windvlaag ( km/h ) Luchtdruk ( hPa ) Humid.( % ) Rainrate ( cm ) Zonneschijn ( W/m2 )
Hoog8,8 7,9 38,5 Zuiden ( 582/1547 ) 45,1 996,5 95 0,80 0
Gemiddeld6,4 5,5 19,3 ZZO #28/80 29,6 993,1 94 0,90 NAN #0/80
Laag2,2 1,2 6,4   19,3 990,4 93 -  
Dagelijkse Tabular details for Zaterdag Feb 29 2020
Tijd Temp. ( °C ) Dew pt. ( °C ) Wind ( km/h ) van Windvlaag ( km/h ) Luchtdruk ( hPa ) Humid.( % ) Rainrate ( cm ) Zonneschijn ( W/m2 )
00:00 2,2 1,2 13,0 ZZO 25,7 996,5 93 0,80 -
00:05 2,3 1,3 16,3 ZO 27,4 996,5 93 0,50 -
00:10 2,6 1,6 17,7 ZZO 24,1 996,2 93 0,50 -
00:15 2,7 1,7 13,0 ZZO 20,9 996,2 93 0,50 -
00:20 2,9 1,9 9,7 ZZO 19,3 995,8 93 0,50 -
00:25 3,1 2,1 16,3 ZZO 32,2 995,8 93 0,50 -
00:30 3,3 2,4 16,3 ZO 20,9 995,8 94 0,50 -
00:35 3,6 2,7 9,7 ZO 25,7 995,8 94 0,50 -
00:40 3,8 2,9 9,7 Oosten 24,1 995,5 94 0,50 -
00:45 3,9 3,0 20,9 ZZO 24,1 995,5 94 0,50 -
00:50 4,1 3,2 24,1 Zuiden 29,0 995,1 94 0,50 -
00:55 4,3 3,4 16,3 ZZO 24,1 995,1 94 0,50 -
01:00 4,4 3,5 17,7 ZZO 24,1 995,1 94 0,30 -
01:05 4,6 3,7 14,3 ZO 27,4 995,1 94 0,30 -
01:10 4,7 3,8 22,7 ZZW 30,6 995,1 94 0,30 -
01:15 4,8 3,9 22,7 Zuiden 29,0 995,1 94 0,30 -
01:20 5,0 4,1 25,9 ZZO 35,4 995,1 94 - -
01:25 5,1 4,2 19,5 ZO 25,7 994,8 94 0,30 -
01:30 5,1 4,2 6,4 Oosten 32,2 994,8 94 0,30 -
01:35 5,2 4,3 17,7 Zuiden 25,7 994,5 94 0,30 -
01:40 5,3 4,4 14,3 ZZO 32,2 994,5 94 0,30 -
01:45 5,4 4,5 17,7 ZO 35,4 994,5 94 0,30 -
01:50 5,4 4,5 28,8 ZZO 30,6 994,5 94 0,30 -
01:55 5,5 4,6 19,5 ZZO 27,4 994,5 94 0,30 -
02:00 5,5 4,6 17,7 ZZO 30,6 994,1 94 0,50 -
02:05 5,6 4,7 17,7 ZZW 32,2 994,1 94 0,50 -
02:10 5,7 4,8 17,7 Zuiden 32,2 994,1 94 0,50 -
02:15 5,8 4,9 14,3 Zuiden 29,0 994,1 94 0,50 -
02:20 5,8 4,9 20,9 ZO 33,8 994,1 94 0,50 -
02:25 5,9 5,0 27,4 OZO 32,2 994,1 94 0,50 -
02:30 6,0 5,1 22,7 ZZO 32,2 993,8 94 0,50 -
02:35 6,1 5,2 19,5 ZZO 32,2 993,8 94 0,50 -
02:40 6,1 5,2 24,1 ZO 37,0 993,8 94 0,50 -
02:45 6,1 5,2 11,1 ZO 24,1 993,8 94 0,50 -
02:50 6,2 5,3 22,7 ZZO 27,4 993,5 94 0,50 -
02:55 6,2 5,3 14,3 ZO 32,2 993,5 94 0,50 -
03:00 6,2 5,3 14,3 Zuiden 27,4 993,5 94 0,30 -
03:05 6,3 5,4 16,3 ZZO 30,6 993,1 94 0,50 -
03:10 6,3 5,4 14,3 Zuiden 30,6 993,1 94 0,50 -
03:15 6,4 5,5 17,7 ZZO 24,1 993,1 94 0,30 -
03:20 6,4 5,5 22,7 ZZO 27,4 993,1 94 0,30 -
03:25 6,6 5,7 17,7 ZO 27,4 992,8 94 0,30 -
03:30 6,7 5,8 20,9 Zuiden 30,6 992,8 94 0,30 -
03:35 6,7 5,8 14,3 ZO 25,7 992,8 94 0,30 -
03:40 6,8 5,9 17,7 ZZO 27,4 992,8 94 0,50 -
03:45 6,8 5,9 19,5 OZO 22,5 992,4 94 0,50 -
03:50 6,9 6,0 22,7 Zuiden 22,5 992,4 94 0,50 -
03:55 7,0 6,1 9,7 ZZO 29,0 992,4 94 0,50 -
04:00 7,1 6,2 19,5 Zuiden 25,7 992,4 94 0,50 -
04:05 7,2 6,5 16,3 ZO 20,9 992,4 95 0,50 -
04:10 7,3 6,6 9,7 Zuiden 27,4 992,1 95 0,50 -
04:15 7,3 6,4 13,0 ZO 20,9 992,1 94 0,50 -
04:20 7,4 6,5 14,3 Zuiden 22,5 992,1 94 0,50 -
04:25 7,4 6,5 11,1 Zuiden 30,6 992,1 94 0,50 -
04:30 7,6 6,9 14,3 ZZW 24,1 991,8 95 0,50 -
04:35 7,7 6,9 16,3 ZO 27,4 991,8 95 0,50 -
04:40 7,7 6,9 20,9 Zuiden 24,1 991,8 95 0,50 -
04:45 7,8 6,9 20,9 Zuiden 24,1 991,8 94 0,50 -
04:50 7,9 7,1 17,7 ZZO 24,1 991,4 95 0,50 -
04:55 8,1 7,3 19,5 Zuiden 32,2 991,4 95 0,50 -
05:00 8,2 7,4 24,1 Zuiden 33,8 991,4 95 0,80 -
05:05 8,2 7,4 24,1 ZZO 29,0 991,4 95 0,50 -
05:10 8,2 7,4 19,5 ZZO 30,6 991,4 95 0,50 -
05:15 8,2 7,4 17,7 Zuiden 33,8 991,4 95 0,50 -
05:20 8,3 7,5 17,7 ZZO 38,6 991,1 95 0,50 -
05:25 8,3 7,5 17,7 ZZO 24,1 991,1 95 0,50 -
05:30 8,3 7,5 24,1 Zuiden 25,7 991,1 95 0,50 -
05:35 8,3 7,5 22,7 Zuiden 32,2 991,1 95 0,50 -
05:40 8,4 7,6 22,7 ZZO 37,0 991,1 95 0,50 -
05:45 8,4 7,5 32,0 Zuiden 33,8 991,1 94 0,30 -
05:50 8,4 7,5 20,9 ZZW 41,8 990,7 94 0,50 -
05:55 8,5 7,6 25,9 OZO 30,6 990,7 94 0,50 -
06:00 8,6 7,7 28,8 Zuiden 41,8 990,7 94 0,30 -
06:05 8,6 7,8 28,8 ZZO 32,2 990,7 95 0,30 -
06:10 8,7 7,9 25,9 Zuiden 43,4 990,4 95 0,30 -
06:15 8,7 7,8 30,6 ZZW 40,2 990,4 94 0,30 -
06:20 8,7 7,8 28,8 Zuiden 45,1 990,4 94 0,30 -
06:25 8,7 7,8 38,5 Zuiden 41,8 990,4 94 0,30 -
06:30 8,8 7,9 24,1 Zuiden 37,0 990,4 94 0,30 -
06:35 8,8 7,9 30,6 Zuiden 38,6 990,4 94 0,30 -

Download your copy of this data-set  here

Our weather-data as stored at Weather Underground. Script ontwikkeld door Jim McMurry. Aangepast voor de template door Leuven-Template.eu

U vindt ons ook hier:

UK Metoffice

Weather Underground